[[{"header":{"parameterUnit":"m.s-1","parameterCategory":1,"la1":30.2991,"la2":30.254,"lo1":-89.0895,"lo2":-89.0444,"dy":0.0017,"dx":0.0017,"nx":28,"ny":28,"refTime":"2023-10-05T21:00:00:Z","depth":0,"parameterNumber":2,"parameterNumberName":"U-component_of_WINDS"},"data":[0,0,0,0,0,0,0,0,0,0,0,0,0,0,0,0,0,0,0,0,0,0,0,0,0,0,0,0,0,0,0,0,0,0,0,0,0,0,0,0,0,0,0,0,0,0,0,0,0,0,0,0,0,0,0,0,0,0,0.4326,0.4327,0,0.4352,0.4353,0.4353,0.4383,0.4383,0.4383,0.4384,0.441,0.4411,0.4411,0,0,0,0,0,0,0,0,0,0,0,0,0,0.4303,0.4303,0.4326,0.4327,0.4327,0.4352,0.4353,0.4353,0.4383,0.4383,0.4384,0.4384,0.441,0.4411,0.4411,0,0,0,0,0,0,0,0,0,0,0,0,0,0.4319,0.4303,0.4326,0.4345,0.4347,0.4352,0.4353,0.4353,0.4382,0.4383,0.4384,0.4384,0.441,0.4411,0.4411,0.4401,0,0,0.4412,0.4413,0,0,0,0,0,0,0,0,0.4318,0.432,0.4342,0.4343,0.4346,0.4365,0.4354,0.4369,0.4382,0.4369,0.4384,0.4385,0.4395,0.4396,0.44,0.4402,0.4403,0.4412,0.4413,0.4413,0.4413,0,0,0,0,0,0,0,0.4317,0.4319,0.4337,0.4342,0.4344,0.4352,0.4355,0.4357,0.4378,0.437,0.4372,0.4375,0.4396,0.4399,0.4401,0.4403,0.4412,0.4413,0.4413,0.4413,0.4399,0.4399,0,0,0,0,0,0,0.4313,0.4318,0.4336,0.4338,0.4333,0.4352,0.4355,0.4358,0.4378,0.4381,0.4374,0.4376,0.4398,0.44,0.4402,0.4391,0.4413,0.4413,0.4414,0.44,0.4399,0.4398,0,0,0,0,0,0,0.4313,0.4315,0.4335,0.4328,0.4332,0.4352,0.4354,0.4358,0.4362,0.4381,0.4385,0.4374,0.4399,0.4401,0.4401,0.4393,0.4413,0.4414,0.4401,0.44,0.4399,0.437,0,0,0,0,0,0,0.4312,0.4314,0.431,0.4328,0.4332,0.4333,0.4354,0.4358,0.4362,0.4365,0.4382,0.4385,0.44,0.44,0.4401,0.4394,0.4414,0.4401,0.44,0.4399,0.4371,0.4368,0.4365,0,0,0,0,0,0.4311,0.4301,0.431,0.4312,0.4327,0.4332,0.4335,0.4351,0.4362,0.4358,0.4371,0.4385,0.4394,0.44,0.4401,0.4394,0.4402,0.4401,0.4399,0.4373,0.4369,0.4365,0,0,0,0,0,0,0.428,0.4303,0.4314,0.4309,0.4318,0.4337,0.4333,0.4346,0.4353,0.4355,0.4376,0.438,0.4377,0.4386,0.4392,0.4385,0.44,0.4399,0.4379,0.4375,0.4372,0.437,0.4415,0,0,0,0,0,0.4273,0.4276,0.4296,0.4289,0.4294,0.4313,0.4316,0.4328,0.4339,0.4343,0.4356,0.4366,0.4371,0.4374,0.438,0.4373,0.4378,0.4369,0.4366,0.4363,0.4361,0.4359,0.4356,0.4394,0.4394,0.4394,0,0,0.4258,0.4271,0.4271,0.4283,0.4293,0.4295,0.4316,0.4317,0.4319,0.4343,0.4344,0.4354,0.4366,0.4363,0.4363,0.437,0.4352,0.4361,0.4359,0.4359,0.4357,0.4354,0.4351,0.4393,0.4393,0.4393,0,0,0.4231,0.4241,0.4237,0.4247,0.426,0.4273,0.4272,0.429,0.4297,0.4298,0.4317,0.432,0.4328,0.4337,0.4342,0.4321,0.4334,0.4323,0.4304,0.4302,0.4299,0.4297,0.4289,0.4286,0.4321,0.4321,0.4321,0,0.4211,0.4215,0.4234,0.4234,0.4239,0.4262,0.4259,0.4267,0.4282,0.4285,0.4294,0.4306,0.4316,0.4315,0.431,0.4314,0.4314,0.432,0.4298,0.4296,0.4294,0.4287,0.4284,0.432,0.432,0.432,0.432,0,0.4189,0.4191,0.4187,0.4201,0.4206,0.4204,0.4223,0.4226,0.4239,0.4251,0.4252,0.4266,0.4275,0.4276,0.4288,0.4278,0.4282,0.4294,0.4309,0.4288,0.4282,0.4279,0.4317,0.4318,0.4318,0.4319,0,0,0.4141,0.4168,0.4165,0.4173,0.419,0.4193,0.4193,0.4202,0.4204,0.4215,0.4215,0.4223,0.4235,0.4241,0.4254,0.4253,0.4235,0.4265,0.4266,0.4259,0.4225,0.4215,0.4211,0.4245,0.4244,0.4244,0.4224,0,0.4118,0.4119,0.4137,0.4133,0.4136,0.4159,0.4159,0.417,0.4182,0.4187,0.42,0.4205,0.422,0.4224,0.4224,0.4237,0.4228,0.4239,0.4245,0.4245,0.424,0.4208,0.4197,0.4177,0.4221,0.4221,0.4221,0,0.4089,0.4098,0.4094,0.4113,0.4115,0.4115,0.4126,0.413,0.4144,0.4153,0.416,0.4176,0.4178,0.4193,0.4197,0.4203,0.4208,0.4215,0.4215,0.4215,0.4231,0.4207,0.4171,0.4168,0.4217,0.4217,0.4218,0,0.4055,0.4066,0.4065,0.4071,0.4093,0.4092,0.4102,0.4116,0.4121,0.4131,0.4134,0.4144,0.4149,0.4157,0.4175,0.4184,0.4176,0.4193,0.4184,0.4183,0.418,0.418,0.4143,0.4184,0.4184,0.4184,0.4184,0,0.4025,0.4022,0.405,0.405,0.4047,0.4069,0.4066,0.4078,0.4091,0.4093,0.4114,0.4116,0.4141,0.4146,0.416,0.4161,0.4163,0.4171,0.4174,0.4168,0.4167,0.417,0.4172,0.4183,0.4183,0.4184,0.4184,0,0.3986,0.4004,0.4005,0.4027,0.4032,0.4029,0.4048,0.4049,0.4063,0.4066,0.4068,0.409,0.4097,0.4116,0.4129,0.4138,0.4135,0.4142,0.413,0.4132,0.4122,0.4122,0.4086,0.4082,0.4125,0.4125,0.4124,0,0.3965,0.3963,0.3985,0.3988,0.3997,0.4002,0.4007,0.4029,0.4034,0.405,0.4049,0.4058,0.4067,0.4077,0.4094,0.4104,0.4111,0.4098,0.4113,0.4107,0.4111,0.411,0.411,0.4094,0.4094,0.4093,0.4093,0,0.3927,0.3937,0.3943,0.3954,0.396,0.3969,0.398,0.3981,0.4006,0.4011,0.4019,0.4025,0.4038,0.4047,0.406,0.407,0.4085,0.4088,0.4087,0.408,0.4073,0.4076,0.412,0.4089,0.4089,0.4089,0.409,0.409,0.3896,0.3895,0.3911,0.3918,0.3929,0.3938,0.394,0.3955,0.3962,0.3974,0.3987,0.3994,0.4009,0.4028,0.4037,0.4043,0.4051,0.4049,0.4048,0.4047,0.4044,0.4073,0.4045,0.4045,0.4046,0.4046,0.4046,0,0.3858,0.3869,0.3876,0.389,0.3896,0.3912,0.3925,0.3929,0.3934,0.3947,0.3955,0.3965,0.3974,0.3992,0.4003,0.4004,0.4012,0.4006,0.4006,0.4008,0.4036,0.4036,0.4,0.4,0.4,0.4,0.4,0.4,0.3839,0.3839,0.3851,0.3857,0.3869,0.3876,0.3882,0.3891,0.3902,0.3911,0.3919,0.3931,0.3947,0.396,0.3969,0.3974,0.3977,0.3969,0.3977,0.4002,0.4006,0.401,0.401,0.397,0.397,0.3948,0.3948,0.3948]},{"header":{"parameterUnit":"m.s-1","parameterCategory":1,"la1":30.2991,"la2":30.254,"lo1":-89.0895,"lo2":-89.0444,"dy":0.0017,"dx":0.0017,"nx":28,"ny":28,"refTime":"2023-10-05T21:00:00:Z","depth":0,"parameterNumber":3,"parameterNumberName":"V-component_of_WINDS"},"data":[0,0,0,0,0,0,0,0,0,0,0,0,0,0,0,0,0,0,0,0,0,0,0,0,0,0,0,0,0,0,0,0,0,0,0,0,0,0,0,0,0,0,0,0,0,0,0,0,0,0,0,0,0,0,0,0,0,0,-7.2211,-7.2213,0,-7.231,-7.2311,-7.2313,-7.2281,-7.2279,-7.2277,-7.2275,-7.237,-7.2374,-7.2378,0,0,0,0,0,0,0,0,0,0,0,0,0,-7.1991,-7.1995,-7.2211,-7.2213,-7.2214,-7.231,-7.2311,-7.2313,-7.2281,-7.2279,-7.2276,-7.2274,-7.2368,-7.2373,-7.2379,0,0,0,0,0,0,0,0,0,0,0,0,0,-7.2088,-7.1996,-7.2211,-7.221,-7.2211,-7.231,-7.2312,-7.2313,-7.2282,-7.2279,-7.2276,-7.2273,-7.2366,-7.2373,-7.238,-7.2484,0,0,-7.24,-7.2403,0,0,0,0,0,0,0,0,-7.2082,-7.2096,-7.2209,-7.221,-7.2211,-7.228,-7.2268,-7.237,-7.2283,-7.2255,-7.2275,-7.2271,-7.2342,-7.2351,-7.2376,-7.2488,-7.2492,-7.2401,-7.2405,-7.2408,-7.241,0,0,0,0,0,0,0,-7.2076,-7.2091,-7.225,-7.2211,-7.2212,-7.2203,-7.2213,-7.2288,-7.2314,-7.2257,-7.2255,-7.2267,-7.2342,-7.2369,-7.2378,-7.2494,-7.24,-7.2406,-7.2411,-7.2413,-7.2698,-7.2702,0,0,0,0,0,0,-7.2069,-7.2086,-7.2247,-7.2253,-7.2138,-7.2209,-7.2221,-7.2261,-7.2314,-7.2319,-7.227,-7.2266,-7.2359,-7.237,-7.2381,-7.2508,-7.2408,-7.2414,-7.2418,-7.2695,-7.2699,-7.2703,0,0,0,0,0,0,-7.2064,-7.2083,-7.2243,-7.2169,-7.2189,-7.2217,-7.2262,-7.2265,-7.2292,-7.2324,-7.2328,-7.2293,-7.2357,-7.2371,-7.2459,-7.2511,-7.2417,-7.2423,-7.2691,-7.2696,-7.2701,-7.2762,0,0,0,0,0,0,-7.2058,-7.2082,-7.2123,-7.217,-7.2193,-7.2322,-7.2265,-7.2269,-7.2305,-7.23,-7.2347,-7.2351,-7.2356,-7.245,-7.2466,-7.2518,-7.2428,-7.2686,-7.2693,-7.27,-7.2755,-7.2769,-7.278,0,0,0,0,0,-7.205,-7.2134,-7.2125,-7.2145,-7.2245,-7.2325,-7.2337,-7.2343,-7.2309,-7.235,-7.237,-7.235,-7.2503,-7.2459,-7.2477,-7.2532,-7.2683,-7.2691,-7.2699,-7.275,-7.2766,-7.278,0,0,0,0,0,0,-7.2089,-7.214,-7.2131,-7.2233,-7.2275,-7.2319,-7.2371,-7.2359,-7.241,-7.2403,-7.2406,-7.2417,-7.2508,-7.2528,-7.2479,-7.2637,-7.2588,-7.26,-7.262,-7.2635,-7.2647,-7.264,-7.2434,0,0,0,0,0,-7.211,-7.2172,-7.2213,-7.2299,-7.2321,-7.2342,-7.2377,-7.2378,-7.2421,-7.2438,-7.2464,-7.2505,-7.2563,-7.26,-7.2654,-7.2758,-7.2768,-7.2805,-7.2817,-7.2827,-7.2838,-7.2896,-7.2913,-7.2729,-7.2729,-7.2729,0,0,-7.2152,-7.2188,-7.2227,-7.2307,-7.234,-7.2404,-7.2357,-7.2425,-7.2472,-7.2447,-7.2533,-7.2554,-7.26,-7.2697,-7.2741,-7.2717,-7.2891,-7.2838,-7.2845,-7.285,-7.2906,-7.2923,-7.2938,-7.2735,-7.2734,-7.2733,0,0,-7.2263,-7.2296,-7.2373,-7.2407,-7.2459,-7.2473,-7.2492,-7.2538,-7.2553,-7.2639,-7.2623,-7.2677,-7.2775,-7.2809,-7.2839,-7.2966,-7.2949,-7.2983,-7.3047,-7.3104,-7.3118,-7.3131,-7.3177,-7.3193,-7.2993,-7.2994,-7.2994,0,-7.2309,-7.2405,-7.2412,-7.2484,-7.252,-7.2504,-7.2581,-7.2613,-7.2679,-7.2703,-7.2676,-7.2802,-7.2831,-7.2936,-7.2968,-7.2992,-7.3013,-7.2978,-7.3116,-7.3129,-7.3141,-7.3185,-7.3202,-7.2997,-7.2997,-7.2997,-7.2996,0,-7.246,-7.2527,-7.2583,-7.265,-7.2692,-7.2766,-7.2783,-7.2825,-7.2823,-7.284,-7.2929,-7.2964,-7.3026,-7.3051,-7.3048,-7.3157,-7.3141,-7.3115,-7.3065,-7.3162,-7.3203,-7.322,-7.3003,-7.3002,-7.3,-7.2999,0,0,-7.2596,-7.2669,-7.2689,-7.272,-7.2777,-7.2828,-7.2901,-7.2965,-7.3001,-7.3047,-7.3108,-7.3193,-7.3171,-7.3205,-7.3206,-7.3255,-7.3355,-7.3224,-7.3225,-7.3247,-7.3478,-7.3497,-7.3517,-7.3345,-7.3348,-7.335,-7.3474,0,-7.2712,-7.2843,-7.2853,-7.297,-7.3033,-7.302,-7.3083,-7.3124,-7.3142,-7.3197,-7.3216,-7.3277,-7.3242,-7.3263,-7.3311,-7.3333,-7.3401,-7.3324,-7.34,-7.3403,-7.339,-7.3538,-7.3559,-7.3674,-7.349,-7.3493,-7.3495,0,-7.2864,-7.2919,-7.3044,-7.3094,-7.3121,-7.3178,-7.3238,-7.3291,-7.3337,-7.3347,-7.3387,-7.3382,-7.3456,-7.3405,-7.3506,-7.3454,-7.3486,-7.3501,-7.3506,-7.3513,-7.3455,-7.355,-7.3711,-7.3728,-7.352,-7.3518,-7.3516,0,-7.2953,-7.3057,-7.3146,-7.3173,-7.3233,-7.3274,-7.3301,-7.3344,-7.3383,-7.3434,-7.3459,-7.3518,-7.355,-7.3595,-7.3606,-7.3567,-7.3708,-7.3657,-7.3718,-7.3717,-7.3747,-7.3745,-7.3916,-7.3768,-7.3767,-7.3767,-7.3767,0,-7.3081,-7.3158,-7.3187,-7.3241,-7.3327,-7.3337,-7.3422,-7.3445,-7.3485,-7.3543,-7.3534,-7.3588,-7.3599,-7.3655,-7.3663,-7.3747,-7.3761,-7.3771,-7.3772,-7.3772,-7.3771,-7.3793,-7.3785,-7.3772,-7.3771,-7.377,-7.3769,0,-7.3194,-7.3216,-7.3312,-7.3363,-7.3378,-7.3439,-7.3481,-7.3533,-7.3551,-7.3625,-7.3643,-7.3671,-7.3737,-7.3752,-7.383,-7.3835,-7.3935,-7.3928,-7.392,-7.392,-7.398,-7.3975,-7.4171,-7.4198,-7.4031,-7.4033,-7.4034,0,-7.3275,-7.3335,-7.3393,-7.3433,-7.3463,-7.3526,-7.3566,-7.3579,-7.362,-7.368,-7.3724,-7.379,-7.3843,-7.3949,-7.3975,-7.4035,-7.403,-7.4095,-7.4038,-7.4037,-7.4032,-7.4028,-7.4035,-7.4105,-7.4107,-7.4108,-7.4109,0,-7.3417,-7.3426,-7.3485,-7.355,-7.3599,-7.3649,-7.3697,-7.3729,-7.3748,-7.3795,-7.3865,-7.3906,-7.3988,-7.4053,-7.4114,-7.4139,-7.4128,-7.4127,-7.4145,-7.4145,-7.4139,-7.4144,-7.395,-7.4122,-7.4121,-7.412,-7.4119,-7.4119,-7.3517,-7.357,-7.3621,-7.3688,-7.3726,-7.3772,-7.3824,-7.385,-7.3909,-7.3978,-7.3981,-7.4057,-7.4102,-7.4183,-7.4213,-7.4271,-7.4251,-7.4275,-7.4282,-7.4288,-7.4294,-7.413,-7.4281,-7.4281,-7.4281,-7.4281,-7.428,0,-7.3659,-7.3692,-7.3753,-7.3823,-7.3876,-7.3863,-7.3916,-7.3961,-7.4029,-7.4073,-7.4127,-7.4207,-7.4271,-7.4303,-7.4366,-7.4407,-7.4403,-7.4423,-7.442,-7.4427,-7.4308,-7.4287,-7.4425,-7.4425,-7.4425,-7.4425,-7.4425,-7.4425,-7.3739,-7.383,-7.3845,-7.3954,-7.3985,-7.4061,-7.4093,-7.4135,-7.4171,-7.4262,-7.4317,-7.4338,-7.4378,-7.4444,-7.4502,-7.451,-7.4533,-7.4556,-7.4561,-7.4449,-7.4435,-7.4421,-7.4401,-7.4561,-7.4561,-7.4675,-7.4676,-7.4677]}]]